Content
SEND FEEDBACK

Daily
Averages
Monthly
Summary
United States of America

TAMUNING, GUAM


Home > North America > United States > Guam
Elevation: 76 meters     Latitude: 13 29N     Longitude: 144 47E

WEATHER
 
SELECT A DAY
Number of Records: 342,038;   Date Range: 1/1/95 - 7/29/14
 
SHARE

PRINT THIS DATA

[ ← Previous Day ]
WEATHER ALMANAC - 22 DECEMBER, 2013
[ Next Day → ]
[ °F ]   °C
Weather ElementAverageHighLow
Temperature26.8 °C29 °C (10:03 am)25.4 °C (6:58 am)
Dewpoint23.2 °C24 °C (1:33 am)22 °C (6:23 pm)
Humidity80.6 %90 % (5:58 am)69 % (1:58 pm)
Barometer1012.5 hPa1014.6 hPa (9:53 am)1010.5 hPa (2:58 pm)
Wind Speed29.6 km/h35.2 km/h (10:58 am)
Wind Gust44.4 km/h (7:58 pm)
Weather ElementAverage
Visibility16.1 km
Wind DirectionENE (53.6 °)

Weather ElementTotal
Precipitation---
Cooling Degree Days8.9 (Base 18.3)
Growing Degree Days17.2 (Base 10)
Averaged from 36 records on 22 December, 2013
WEATHER CONDITIONS BREAKOUT
WIND DIRECTION BREAKOUT
WEATHER BY HOUR - 22 DECEMBER, 2013
[ °F ]   °C
Local TimeTemperatureDewpointHumidityBarometerVisibilityWind DirectionWind SpeedGust SpeedPrecipitationEventsConditions
1:33 AM26 °C24 °C89 %1012.9 hPa16.1 kmENE (60°)29.6 km/hMostly Cloudy
1:43 AM26 °C24 °C89 %1012.5 hPa16.1 kmENE (60°)24.1 km/hMostly Cloudy
1:58 AM26 °C24 °C89 %1011.5 hPa16.1 kmENE (60°)27.8 km/hOvercast
2:38 AM26 °C24 °C89 %1012.2 hPa16.1 kmENE (60°)25.9 km/hMostly Cloudy
2:48 AM26 °C24 °C89 %1012.2 hPa16.1 kmENE (60°)22.2 km/hScattered Clouds
2:58 AM25.5 °C23.6 °C89 %1011.2 hPa16.1 kmENE (60°)25.9 km/hScattered Clouds
3:58 AM25.5 °C23 °C86 %1011.2 hPa16.1 kmENE (60°)24.1 km/hPartly Cloudy
4:58 AM25.5 °C23.1 °C86 %1011.2 hPa16.1 kmENE (60°)24.1 km/hPartly Cloudy
5:58 AM25.5 °C23.7 °C90 %1011.5 hPa16.1 kmENE (60°)25.9 km/hScattered Clouds
6:58 AM25.4 °C23.4 °C89 %1012.2 hPa16.1 kmENE (60°)25.9 km/hPartly Cloudy
7:58 AM26.6 °C23.5 °C83 %1012.9 hPa16.1 kmNE (50°)27.8 km/hClear
8:58 AM27.6 °C23.3 °C77 %1013.2 hPa16.1 kmENE (60°)29.6 km/hClear
9:53 AM28 °C24 °C79 %1014.6 hPa16.1 kmNE (50°)31.5 km/h40.7 km/hMostly Cloudy
9:58 AM28 °C24 °C79 %1013.9 hPa16.1 kmNE (50°)31.5 km/hMostly Cloudy
10:03 AM29 °C24 °C74 %1014.6 hPa16.1 kmNE (50°)27.8 km/hMostly Cloudy
10:08 AM28 °C24 °C79 %1014.6 hPa16.1 kmNE (50°)31.5 km/hMostly Cloudy
10:18 AM28 °C23 °C74 %1014.2 hPa16.1 kmENE (60°)33.3 km/hScattered Clouds
10:58 AM28.7 °C23 °C71 %1013.2 hPa16.1 kmNE (50°)35.2 km/hScattered Clouds
11:58 AM28.9 °C22.9 °C70 %1012.9 hPa16.1 kmENE (60°)29.6 km/hPartly Cloudy
12:58 PM29 °C23 °C70 %1011.9 hPa16.1 kmNE (40°)25.9 km/hPartly Cloudy
1:58 PM29 °C22.7 °C69 %1011.2 hPa16.1 kmNE (50°)31.5 km/hPartly Cloudy
2:58 PM28.7 °C23.4 °C73 %1010.5 hPa16.1 kmNE (50°)33.3 km/hScattered Clouds
3:58 PM28 °C23.1 °C75 %1010.5 hPa16.1 kmNE (50°)27.8 km/h40.7 km/hScattered Clouds
4:58 PM27 °C23 °C79 %1011.2 hPa16.1 kmNE (50°)35.2 km/hScattered Clouds
5:58 PM26.3 °C22.5 °C79 %1011.5 hPa16.1 kmNE (50°)29.6 km/hScattered Clouds
6:13 PM26 °C23 °C83 %1012.5 hPa16.1 kmNE (50°)27.8 km/h37 km/hMostly Cloudy
6:23 PM26 °C22 °C78 %1012.9 hPa16.1 kmNE (50°)27.8 km/hScattered Clouds
6:58 PM26.3 °C23 °C82 %1012.2 hPa16.1 kmNE (50°)29.6 km/hScattered Clouds
7:58 PM26.5 °C22.2 °C77 %1012.9 hPa16.1 kmNE (50°)35.2 km/h44.4 km/hMostly Cloudy
8:28 PM26 °C23 °C83 %1014.2 hPa16.1 kmNE (50°)31.5 km/h44.4 km/hMostly Cloudy
8:33 PM26 °C23 °C83 %1014.2 hPa16.1 kmNE (50°)29.6 km/h44.4 km/hMostly Cloudy
8:38 PM26 °C22 °C78 %1014.2 hPa16.1 kmNE (50°)35.2 km/h42.6 km/hMostly Cloudy
8:58 PM26.2 °C22.6 °C80 %1013.2 hPa16.1 kmNE (50°)29.6 km/hScattered Clouds
9:58 PM25.9 °C22.3 °C80 %1013.2 hPa16.1 kmNE (50°)35.2 km/hScattered Clouds
10:58 PM26.1 °C22.5 °C80 %1013.2 hPa16.1 kmENE (60°)33.3 km/hPartly Cloudy
11:58 PM26 °C22.5 °C81 %1013.2 hPa16.1 kmNE (50°)35.2 km/h44.4 km/hScattered Clouds
Hourly data recorded from PGUA, located 0 kilometers away from Tamuning, Guam







STORIES FROM OUR PARTNERS